Search for airport 
image banner adimage banner ad
image banner ad

EVSM - Lielvarde M Sola

Located in Lielvarde, Latvia

ICAO - , IATA -

Data provided by Airmate  

General information

Coordinates: N56°39'59" E24°54'11"
Elevation is 142 feet MSL.
Magnetic variation is 7° East
View others Airports in Ogre District

Operational data

Open for public use
Current time UTC:
Current local time:
Weather at : EVRA - Riga ( 64 km )
METAR: EVRA 211720Z 18013KT CAVOK 02/00 Q0998 R18/720293 NOSIG
TAF: TAF EVRA 211402Z 2115/2215 16007KT CAVOK TEMPO 2200/2212 BKN005
View NOTAMs / SUP AIP / TFR affecting this airport [VIEW]
Communications frequencies: [VIEW]

Runways:

Airport contact information

Address: Lielvarde Latvia

Satellite view of EVSM